{"data":{"norad_id":68180,"epoch":"2026-05-24T16:56:11.583168Z","epoch_age_seconds":103713,"freshness":"FRESH","line1":"1 68180U 26050P   26144.70568962  .00042425  00000+0  10915-2 0  9990","line2":"2 68180  53.1586 273.5166 0001187  57.6662 302.4457 15.38860087 12321","mean_motion":15.38860087,"eccentricity":0.0001187,"inclination_deg":53.1586,"raan_deg":273.5166,"arg_perigee_deg":57.6662,"mean_anomaly_deg":302.4457,"bstar":0.0010915,"rev_number":1232,"period_min":93.575758586817,"perigee_km":448.66851141631,"apogee_km":450.28938744271,"semimajor_km":6827.6159494295,"source":"CELESTRAK","updated_at":"2026-05-25T13:38:21.855000Z"}}